Погода в Гдове

Хотите узнать прогноз погоды в Гдове? Тогда Вам сюда: Погода в Гдове

Поиск расширенной информации на нашем сайте:

Полезная информация:

Новости сайта



02.01.2020
Опубликован Долгосрочный прогноз погоды по городам России и ближнего зарубежья на январь 2020 года.
Карты: Прогноз на январь и февраль 2020 года, Сравнение прогнозируемой аномалии приземной температуры воздуха на январь 2020 года по разным моделям.




Погода в Гдове - сегодня

Время (UTC), дата Ветер
(°,м/с) 
Видим.   Явления Облачность Т
(°С)
Тd
(°С)
f(%) Тe
(°С)
Pmin
(гПа)
dP
(гПа)
Po
(мм)
O2
(г/м3)
Тmin Tmax R s Состояние
почвы
12 29.11.20 070 (В) 20000 м    9/9 300 м 
[St]
-0.3 -2.2 87 -3  1027.6  -0.9  767  310           
15 29.11.20 060 (СВ) 20000 м    9/9 300 м 
[St]
-0.9 -2.8 87 -3  1026.6  -1  766  310           
18 29.11.20 050 (СВ) 20000 м    10/10 300 м 
[St]
-0.7 -2.7 86 -3  1025.2  -1.4  765  309    +0.3       
21 29.11.20 060 (СВ) 2000 м  слаб. ливневой снег  8/3 300 м кучево-дожд., средняя 
[Cb calv|Ac trans]
-0.9 -1.9 93 -3  1023.6  -1.6  764  309           
00 30.11.20 070 (В) 2000 м  слаб. ливневой снег  10/10 300 м кучево-дожд. 
[Cb cap]
-0.6 -1.6 93 -3  1022.1  -1.5  763  308           
03 30.11.20 090 (В) 10 км  в посл. час ливневой снег  10/10 200 м 
[St]
-0.1 -0.9 94 -2  1021.1  -1  762  307  -1    0.6     
06 30.11.20 120 (ЮВ) 20000 м  {ливн. осадки}  9/9 300 м 
[St]
+0.2 -0.4 96 -2  1020.6  -0.5  762  307  -1    0.6     
09 30.11.20 140 (ЮВ) 20000 м    9/9 1000 м 
[Sc]
+0.8 -0.8 89 -1  1020.6  0.1  762  306           
12 30.11.20 140 (ЮВ) 20000 м    9/9 600 м 
[Sc]
+0.7 -1.4 86 -2  1019.2  -1.4  761  306           
15 30.11.20 130 (ЮВ) 20000 м    6/6 600 м 
[Sc]
-0.2 -2.1 87 -2  1018.3  -0.9  760  307           
18 30.11.20 130 (ЮВ) 4000 м  слаб. ливневой снег  9/9 300 м кучево-дожд. 
[Cb cap]
-0.7 -1.1 97 -3  1017.3  -1.1  759  307    +0.9     
21 30.11.20 160 (Ю) 20000 м  {ливн. осадки}  9/9 300 м кучево-дожд. 
[Cb calv]
-0.2 -0.9 95 -2  1016.8  -0.4  759  306           
00 01.12.20 210 (ЮЗ) 20000 м  {ливн. осадки}  10/10 600 м кучево-дожд. 
[Cb calv]
+0.4 -0.8 92 -1  1017.7  0.9  759  306           
03 01.12.20 210 (ЮЗ) 20000 м    10/10 300 м 
[St]
+0.6 -0.5 92 -1  1019.5  1.8  761  306  -0.9       
06 01.12.20 210 (ЮЗ) 20000 м    10/10 200 м 
[St]
+1.1 +0.1 93 -1  1021.3  1.8  762  306  -0.7    0.6  мокрый или
старый снег
50-90% 
09 01.12.20 210 (ЮЗ) 20000 м    9/9 300 м 
[St]
+1.4 +0.1 91 -1  1023.5  2.2  764  306           
12 01.12.20 210 (ЮЗ) 20000 м    9/9 300 м 
[St]
+1.6 +0 89 -1  1025.1  1.6  765  306           
15 01.12.20 200 (Ю) 20000 м    9/9 300 м 
[St]
+1.9 +0.9 93 1026.9  1.7  766  307           
21 01.12.20 210 (ЮЗ) 20000 м    9/9 300 м 
[St]
+1.2 -0.3 90 -1  1030.3  1.6  769  308           
00 02.12.20 210 (ЮЗ) 20000 м    9/9 600 м 
[Sc]
+0.5 -1.3 88 -2  1031.9  1.6  770  310           
03 02.12.20 160 (Ю) 20000 м    9/9 600 м 
[Sc]
-0.4 -1.7 91 -1  1032.4  0.5  770  311  -0.4         
06 02.12.20 170 (Ю) 20000 м    9/9 300 м 
[St]
-0.6 -1.9 91 -3  1032.3  -0.1  770  311  -0.7         
09 02.12.20 170 (Ю) 20000 м    10/10 300 м 
[St]
-0.4 -2 89 -2  1032.9  0.6  771  311           
12 02.12.20 170 (Ю) 20000 м    10/10 300 м 
[St]
-0.5 -2.9 84 -2  1032  -0.9  770  311           
15 02.12.20 170 (Ю) 20000 м    10/10 300 м 
[St]
-1.5 -3.7 85 -2  1031.4  -0.6  770  312           
Время (UTC), дата Ветер
(°,м/с) 
Видим.   Явления Облачность Т
(°С)
Тd
(°С)
f(%) Тe
(°С)
Pmin
(гПа)
dP
(гПа)
Po
(мм)
O2
(г/м3)
Тmin Tmax R s Состояние
почвы

Для получения пояснительной информации подведите курсор к названию столбца.

ПОГОДА в Гдове - архив

Всё, что Вы хотите узнать о погоде в Гдове - удобно и подробно!

Выберите нужную дату (начиная с 1 января 2019* года) и нажмите кнопку "Найти".
Будут отображены архивные сводки погоды по пункту Гдов, начиная с указанной даты.


Отображать данные в формате CSV (для использования в таблицах Excel)


Внимание! Наш архив погоды предназначен исключительно для личного некоммерческого использования в познавательных целях. Если Вам необходимы официальные справки о состоянии погоды (для производственных, юридических, коммерческих и т.п. целей), обращайтесь в органы Росгидромета.

*Примечание: данная дата относится к архиву по метеостанциям СССР (Россия, СНГ, Балтия).
Архив по метеостанциям Зарубежной Европы и Азии (кроме Китая) хранится 10 дней, по другим регионам земного шара (Китай, Африка, Америка, Австралия, Океания) - 1 день.

Гдов - район местоположения метеостанции


Название, широта, долгота, высота метеостанции:
Гдов 58.7°ш. 27.8°д. 40 м над ур. моря [Российская Федерация]

Дополнительная информация

В oтличие oт бoльшинства пoгoдных сайтoв мы публикуем пoдрoбную метеoинфoрмацию в детальнoм прoфессиoнальнoм фoрмате.

Характеристики температуры и влажнoсти вoздуха измеряются на высoте 2 м в тени вдали oт зданий и деревьев.
Скoрoсть ветра измеряется на высoте 10 м (на урoвне рoста челoвека скoрoсть ветра ниже в 1.5-2 раза). Если метеoстанция нахoдится в гoрoде или в лесу, тo скoрoсть ветра занижена на 2-4 м/с пo сравнению с oткрытым местoм. Скoрoсть ветра над акватoриями крупных рек и oзёр, а также на вершинах хoлмoв на 2-5 м/с выше, чем в oбычных услoвиях.
Атмoсфернoе давление в разных тoчках местнoсти мoжет значительнo oтличаться oт давления на метеoстанции, в зависимoсти oт услoвий рельефа (при пoдъёме на 10 м давление пoнижается примернo на 1 мм рт.ст.).